Location: Zagreb
(45.8000°N, 16.0000°E)
Time: 15:45:34
(UTC+02:00)

N. Korean satellite - Visible Passes

Search period start: 06 October 2022 00:00
Search period end: 16 October 2022 00:00
Orbit: 425 x 467 km, 97.3° (Epoch: 05 October)

Date Brightness Start Highest point End Pass type
(mag) Time Alt. Az. Time Alt. Az. Time Alt. Az.
06 Oct 9.5 05:25:26 10° NE 05:27:40 17° E 05:29:51 10° SE visible
07 Oct 6.3 06:21:09 10° N 06:24:26 85° WNW 06:27:42 10° SSW visible
08 Oct 8.5 05:45:19 10° NNE 05:48:14 30° E 05:51:10 10° SSE visible
09 Oct 10.0 05:10:54 10° ENE 05:11:50 11° E 05:12:45 10° ESE visible
10 Oct 7.1 06:05:20 10° NNE 06:08:34 56° E 06:11:47 10° S visible
11 Oct 9.3 05:29:42 10° NE 05:32:08 19° E 05:34:33 10° SE visible
12 Oct 6.2 06:25:19 10° N 06:28:36 74° WNW 06:31:52 10° SSW visible
13 Oct 8.2 05:49:08 10° NNE 05:52:09 33° E 05:55:11 10° SSE visible
14 Oct 9.8 05:14:06 10° ENE 05:15:29 12° E 05:16:53 10° ESE visible
15 Oct 6.8 06:08:38 10° NNE 06:11:54 63° ESE 06:15:11 10° S visible
